Location: Elk Horn Observatory
(36.6768°N, 80.8309°W)
Time: 00:48:50
(UTC-04:00)

Tiangong 2 - Pass Details

Date: 22 February 2019
Orbit: 379 x 390 km, 42.8° (Epoch: 19 March)

Event Time Altitude Azimuth Distance (km) Brightness Sun altitude
Rises 19:01:15 0° 284° (WNW) 2,252 6.5 -10.8°
Reaches altitude 10° 19:03:38 10° 268° (W) 1,394 5.5 -11.3°
Maximum altitude 19:06:05 21° 216° (SW) 921 3.5 -11.8°
Drops below altitude 10° 19:08:30 10° 165° (SSE) 1,383 3.8 -12.3°
Enters shadow 19:10:10 - 152° (SSE) 1,966 4.4 -12.6°
